Theta_e
314 314 314 314 314 315 315 315 316 316 315 315 315 314 314 313 313 302 299 301 299 294 296 301 303 298 297 295 292 294 293 295 293 289 290 289 289 291 288 290 289 287 287 287 288 285 287 305 303 299 304 309 311 313
314 314 313 313 314 314 314 315 315 315 315 315 315 314 313 313 312 307 296 300 301 296 297 301 304 305 304 303 297 295 294 295 296 291 290 290 289 289 286 285 292 289 294 290 294 292 301 305 306 307 308 307 309 312
314 313 313 312 312 313 314 314 315 315 315 314 315 314 313 313 312 308 297 297 297 295 296 296 298 302 303 304 304 296 296 298 297 297 293 291 289 290 286 287 289 294 297 294 294 295 300 303 305 307 308 309 312 315
313 313 313 313 313 314 314 315 315 315 315 314 314 314 313 313 312 310 298 297 297 295 291 295 304 301 305 302 303 302 301 299 298 297 293 291 290 294 289 292 290 294 296 293 293 297 300 302 304 307 309 309 311 314
313 313 313 313 313 314 314 314 314 315 315 314 314 314 313 312 311 302 298 299 299 298 292 293 298 300 301 301 302 301 299 298 297 295 293 292 296 297 298 293 290 296 294 294 293 298 298 300 304 307 307 307 309 310
312 312 312 313 313 313 314 314 314 314 314 314 314 314 313 312 308 299 298 303 303 300 293 288 294 298 301 302 302 299 299 298 297 297 298 300 300 300 295 293 297 300 302 302 299 302 302 304 304 306 307 308 310 312
312 312 312 313 313 313 313 313 313 314 314 314 313 313 312 311 301 297 298 303 304 300 294 290 290 298 300 300 301 300 300 298 299 299 295 295 297 301 298 294 300 302 306 309 310 308 306 305 303 309 310 312 314 315
312 312 312 312 313 313 313 313 313 313 314 314 313 312 312 310 306 301 304 307 303 298 296 288 289 292 299 297 297 298 297 298 297 295 295 294 297 298 295 297 301 308 310 309 309 308 308 309 309 309 312 311 310 311
312 312 312 312 313 312 312 313 313 313 313 313 313 311 303 301 299 302 312 308 303 298 293 293 287 287 298 296 296 297 301 294 299 295 295 299 296 294 299 303 306 307 307 307 309 309 308 308 307 309 311 313 312 311
311 311 311 312 312 312 312 312 313 313 312 311 303 301 300 303 313 311 302 298 295 294 298 292 292 291 295 294 295 299 295 297 292 299 303 298 296 302 307 308 309 308 309 309 306 305 306 305 307 307 308 311 313 315
310 310 311 312 312 312 312 312 313 312 308 300 297 298 301 311 301 296 292 296 292 290 292 293 292 291 297 296 295 298 294 297 291 297 298 298 298 304 309 309 310 309 310 310 310 311 310 308 307 307 308 311 313 316
310 310 311 311 311 311 312 312 312 304 300 300 298 299 299 298 293 290 289 291 292 290 294 293 294 294 296 301 296 299 295 296 293 300 297 294 301 307 308 308 308 310 311 311 312 312 312 311 309 309 310 311 313 317
310 311 311 311 311 311 312 312 312 309 304 303 298 294 294 292 284 288 285 289 290 299 302 298 296 299 296 295 293 297 294 292 299 295 294 299 304 306 307 308 309 312 314 315 315 317 316 313 313 310 310 312 313 317
310 310 310 310 310 311 312 312 311 307 301 296 294 283 288 286 289 290 291 293 299 301 302 299 297 295 295 296 297 295 297 296 293 291 292 300 303 306 308 310 311 312 314 315 315 317 315 311 310 311 312 313 314 316
310 310 310 310 311 312 312 311 309 305 302 298 294 287 289 293 293 295 296 296 298 302 300 299 297 295 295 296 297 296 294 292 293 292 298 303 306 307 307 309 311 313 313 314 314 315 315 314 310 310 312 314 315 316
310 310 309 311 311 311 311 309 305 303 302 300 293 291 293 292 293 294 294 295 298 300 300 297 292 291 291 296 296 294 293 290 295 299 304 306 306 307 309 311 313 315 315 315 315 316 316 315 314 312 314 315 317 318
310 307 310 311 311 310 308 304 304 301 299 295 291 293 293 293 293 294 295 296 297 296 293 296 291 290 294 292 295 298 295 298 302 304 306 306 307 308 310 312 314 316 315 315 317 316 316 317 316 313 313 316 317 318
307 308 311 311 309 307 305 304 303 300 296 295 291 292 293 294 293 294 295 296 296 294 295 294 296 291 292 291 293 299 301 303 304 303 304 307 308 311 313 313 315 316 315 317 317 317 317 316 314 314 316 317 317 318
308 310 311 310 308 305 301 301 302 295 294 293 293 293 294 294 295 297 297 296 296 297 297 297 295 292 292 295 299 301 302 301 301 304 305 309 312 313 313 314 315 315 316 316 316 316 316 314 314 314 316 318 318 320
310 311 310 310 309 304 300 299 301 295 290 292 292 292 293 293 294 294 295 295 295 296 295 296 294 295 295 298 301 302 303 303 301 301 304 309 314 312 313 313 314 316 316 317 317 310 316 316 316 316 317 318 319 318
308 309 310 308 305 304 301 299 297 294 292 291 293 292 293 294 293 293 294 295 294 293 293 296 297 299 301 303 302 302 303 303 302 302 306 307 313 313 312 314 316 316 316 316 316 316 315 316 316 316 318 320 324 322
306 309 305 306 301 301 298 299 294 293 291 292 291 292 291 292 295 293 295 294 293 296 297 297 298 299 301 303 304 304 304 304 306 308 305 308 310 310 313 313 312 313 315 316 316 316 318 318 315 319 321 321 319 320
308 306 302 301 297 293 291 294 291 292 289 290 293 292 296 297 299 299 294 294 295 300 299 299 300 302 305 307 309 310 310 309 309 313 311 311 312 314 313 314 314 314 315 317 318 318 318 309 317 321 322 322 321 321
307 300 297 295 294 291 293 291 294 292 291 290 290 290 293 295 298 296 294 296 299 302 303 306 307 306 308 310 310 308 310 311 312 313 314 313 313 313 312 314 315 316 317 317 318 319 319 319 312 319 320 320 320 319
294 293 292 287 293 291 291 293 294 290 290 294 295 293 292 296 292 292 293 299 301 303 305 307 309 311 309 310 313 312 314 314 310 310 316 313 315 313 313 314 315 316 318 317 315 317 317 319 319 318 317 317 318 319
288 294 289 290 289 289 289 291 291 291 291 290 292 293 297 295 293 294 300 304 305 307 308 308 310 307 307 311 311 311 313 313 312 313 315 317 314 312 311 311 313 316 317 319 316 316 316 316 317 316 316 315 306 318
288 289 292 293 292 292 290 291 295 293 293 292 295 297 294 293 294 299 305 308 308 309 309 311 311 308 306 307 308 310 312 314 314 314 318 320 317 316 315 313 314 316 318 317 317 316 315 316 316 316 316 316 316 317
293 291 288 290 290 292 292 293 294 292 292 294 295 294 295 296 296 304 306 309 307 305 305 307 309 309 308 309 309 309 312 315 320 319 319 318 319 317 314 313 311 302 312 313 317 317 317 316 316 316 316 315 316 317
289 291 291 289 291 294 293 293 294 293 296 299 298 297 298 303 305 304 306 306 306 304 304 305 308 311 312 312 311 311 313 315 314 314 312 311 313 316 316 314 314 314 315 314 299 305 312 314 314 314 313 312 312 313
289 291 289 290 290 290 294 298 298 300 297 297 299 297 296 298 301 304 303 303 303 304 308 309 310 310 310 309 310 313 314 315 315 317 314 312 314 317 316 314 313 313 314 313 312 311 302 309 307 312 311 311 311 311
292 290 290 290 290 293 296 300 299 298 300 296 296 295 297 297 300 305 305 306 307 308 309 309 311 313 312 312 312 312 311 315 317 320 320 320 319 316 313 311 311 312 311 311 310 310 309 309 309 309 309 309 308 308
291 291 291 290 293 299 299 298 297 297 298 298 296 296 297 298 297 300 304 307 307 307 307 312 316 316 317 316 317 317 304 318 320 320 321 319 318 316 311 308 309 310 310 310 310 310 310 308 308 309 309 310 310 310
295 293 294 293 293 294 297 298 298 298 299 299 302 302 300 298 297 301 308 310 311 311 314 317 317 316 316 318 318 312 306 311 302 294 296 301 302 304 308 309 311 311 310 309 310 311 311 310 309 309 309 309 310 310
Wind_Speed
8 8 7 8 8 10 9 10 10 10 11 12 13 14 15 17 18 6 3 4 3 1 6 4 3 3 1 2 2 4 4 3 4 4 2 1 1 2 2 3 3 4 3 3 0 3 8 4 9 4 4 7 6 7
8 8 8 8 8 8 10 9 11 10 9 11 11 12 13 14 15 9 2 2 1 3 5 2 5 5 5 10 4 1 3 2 4 5 0 2 1 1 2 4 2 4 5 3 6 6 5 1 9 7 6 13 12 9
8 8 7 8 8 9 9 9 10 10 8 9 10 10 11 12 12 7 2 3 2 3 5 3 1 0 2 5 5 4 3 3 2 2 4 2 2 4 3 6 3 4 3 4 3 4 8 11 10 6 6 6 12 13
9 8 8 8 8 8 9 9 9 10 9 8 9 9 10 11 11 9 2 1 2 1 1 6 3 6 5 1 6 6 3 3 5 3 3 3 3 5 5 5 6 7 3 4 7 9 12 13 10 9 7 6 10 14
9 9 8 9 9 9 9 9 9 9 9 7 8 9 10 10 11 3 1 1 1 3 3 6 9 3 7 6 8 7 5 4 2 1 2 4 3 2 2 1 4 6 7 4 8 10 9 13 14 11 11 12 12 11
10 9 9 10 9 9 9 8 8 8 8 7 8 9 9 8 8 2 3 1 3 2 2 5 4 6 5 6 3 5 5 3 4 4 4 3 3 4 3 4 6 6 3 7 9 8 11 18 16 13 14 19 17 8
10 9 9 9 9 9 8 8 8 8 8 7 7 8 9 7 2 2 3 3 2 2 2 5 6 5 5 5 3 3 2 1 2 1 2 2 3 4 2 9 6 4 6 4 6 4 7 6 7 13 14 13 12 14
10 10 9 10 9 8 8 7 8 8 7 7 8 9 10 5 1 2 2 2 4 4 2 1 6 6 5 4 4 3 3 3 2 1 1 1 2 2 5 5 4 4 6 9 8 6 10 16 18 14 10 10 11 13
11 10 9 8 8 8 7 7 7 6 6 7 8 8 2 2 2 2 4 4 1 3 1 1 1 4 5 3 2 4 1 2 1 1 3 2 1 5 5 2 5 9 10 15 17 15 13 13 18 13 9 7 8 10
11 10 9 8 8 7 7 6 6 5 6 6 3 3 1 1 4 3 3 3 4 3 1 3 1 4 2 2 3 3 2 2 3 0 1 3 4 4 5 9 9 13 17 19 18 19 15 12 12 12 12 11 8 9
13 12 9 8 7 6 6 5 3 3 3 2 2 1 2 5 3 3 2 2 2 3 2 4 4 3 1 1 3 1 2 2 2 2 2 3 3 4 5 10 14 17 17 18 18 18 16 17 14 13 16 13 11 9
14 11 9 8 7 6 5 4 2 2 2 3 2 1 2 3 3 3 2 3 2 4 3 3 3 5 3 2 0 2 2 2 3 3 2 3 5 8 11 17 19 18 16 16 15 14 15 15 13 13 14 14 11 9
13 10 9 8 7 6 6 6 5 2 3 1 2 2 4 1 4 3 2 2 3 3 4 2 2 2 1 2 0 1 2 4 4 0 3 4 10 13 18 16 16 16 15 13 12 11 10 12 10 11 13 13 11 11
12 9 9 8 7 7 7 6 5 2 2 2 2 3 4 3 4 5 4 2 4 3 2 2 2 2 1 0 1 1 2 2 3 2 4 5 16 17 17 15 13 16 15 14 13 11 7 7 9 9 11 10 10 10
10 9 8 7 8 8 8 7 6 1 1 2 2 4 5 4 3 4 4 3 4 2 1 0 2 2 1 1 1 2 2 2 1 4 7 10 15 16 15 17 15 14 14 13 13 11 9 7 7 7 8 9 9 9
11 7 5 8 11 10 10 7 2 1 1 2 3 2 2 1 3 2 2 3 2 3 1 3 1 1 2 1 1 2 1 3 4 5 9 12 14 15 16 16 15 12 13 13 11 10 10 7 8 8 6 6 8 7
11 3 9 12 12 12 9 2 2 2 3 3 4 3 2 3 5 4 2 3 2 3 2 1 2 2 1 1 2 3 4 5 7 8 9 12 15 14 15 15 15 12 11 12 12 10 9 9 3 4 6 6 7 8
2 3 14 15 10 6 1 1 2 3 5 4 2 3 3 3 3 4 3 2 1 1 2 4 2 2 3 3 3 4 5 5 6 9 9 12 13 13 11 12 13 12 10 9 10 10 9 9 5 2 4 5 5 5
4 6 17 17 5 4 3 2 2 3 5 2 3 3 3 4 4 4 3 3 4 2 1 1 4 3 5 4 4 4 5 4 8 10 11 13 8 5 10 10 11 9 9 9 9 7 7 6 4 3 3 2 2 2
6 13 16 8 0 2 3 1 1 2 3 3 2 3 4 4 3 3 3 3 4 3 4 5 5 4 4 5 5 5 7 6 2 8 12 11 8 3 6 6 7 9 7 8 9 6 5 5 3 4 4 4 3 2
5 8 10 3 1 1 1 2 2 4 3 2 2 1 5 2 3 3 3 4 3 4 4 5 4 5 6 6 5 5 8 5 6 5 8 9 10 8 6 5 5 6 6 8 7 9 7 5 4 3 3 4 5 5
3 6 3 1 2 1 1 1 2 2 1 3 3 2 4 3 3 3 2 2 4 5 5 5 5 5 5 7 6 5 6 6 7 6 6 6 5 6 5 3 4 4 5 6 7 7 7 7 5 3 4 5 6 5
7 3 3 2 2 2 3 2 0 2 2 3 3 3 3 3 2 2 2 4 4 3 3 4 5 5 6 6 4 6 4 4 4 4 5 4 3 4 4 4 2 2 4 4 4 4 4 6 7 6 5 5 5 6
2 3 3 3 3 3 2 2 3 2 2 2 2 4 3 3 3 1 3 3 3 3 2 3 3 4 3 2 3 4 4 2 4 3 3 4 4 4 4 4 4 3 3 4 4 5 7 7 7 7 8 8 8 9
5 1 5 1 2 2 3 2 3 2 4 3 3 3 3 2 1 2 2 3 3 2 2 3 3 1 0 2 3 3 3 2 3 4 4 3 4 3 4 4 3 4 5 6 6 6 7 7 8 9 10 9 10 11
3 5 6 6 3 4 4 2 5 5 3 3 4 3 1 0 1 4 2 1 2 2 2 3 2 1 1 2 1 4 4 3 2 0 3 3 3 3 3 4 4 5 6 4 4 6 7 7 8 11 11 12 12 12
4 4 3 2 2 2 2 3 1 1 2 4 3 1 2 2 3 1 2 3 3 2 2 3 4 2 2 2 3 4 5 2 2 1 1 3 2 2 2 3 4 3 4 5 6 6 7 8 9 11 11 11 12 11
2 2 5 4 3 3 2 1 3 5 4 3 2 2 2 3 3 2 5 3 3 3 3 3 2 2 3 4 4 4 4 2 1 1 0 2 3 4 5 4 3 7 5 7 7 7 7 8 9 10 11 10 9 8
2 2 3 3 3 4 5 5 4 4 3 3 2 2 3 3 3 3 5 3 3 3 3 3 3 3 4 3 4 3 3 2 2 5 4 3 3 4 4 3 3 4 4 7 12 10 10 9 9 9 10 8 6 7
4 4 3 3 4 5 5 5 4 3 3 4 2 2 3 4 5 3 3 2 1 2 2 3 3 3 3 3 4 5 1 3 3 3 4 2 2 0 1 3 4 3 4 6 6 7 11 8 8 8 9 8 8 8
2 3 2 3 4 5 6 4 3 3 3 5 5 5 6 4 4 3 3 3 2 2 3 3 3 3 3 3 3 3 3 2 5 6 4 3 3 3 4 4 3 4 5 5 5 6 8 7 7 8 9 8 8 8
3 6 4 3 4 3 3 4 4 4 3 4 4 4 1 1 3 4 2 3 0 2 3 4 4 4 4 4 3 3 2 3 5 4 8 5 4 4 5 4 4 4 5 4 4 4 6 7 5 5 5 6 6 6
3 3 4 3 3 3 2 2 1 3 2 2 2 2 3 4 4 4 2 3 3 3 4 4 4 3 2 2 4 2 3 3 3 3 1 3 7 8 5 4 3 3 5 4 4 3 4 5 4 4 4 4 5 5
Wind_Direction
273 286 301 314 320 328 336 334 340 342 352 352 356 359 3 6 6 30 288 354 83 207 275 213 241 178 88 102 168 273 35 342 37 65 114 220 163 289 312 270 213 192 228 239 78 240 265 356 356 35 276 304 278 295
264 275 289 301 314 323 322 338 332 331 341 347 349 352 357 3 6 18 344 356 2 176 248 279 260 272 226 213 137 281 199 212 194 96 174 128 220 348 141 270 316 268 191 208 196 238 256 236 238 266 270 286 296 280
253 261 281 291 300 309 316 318 320 324 332 337 340 345 349 354 1 15 275 308 19 7 304 356 269 12 115 197 185 154 261 194 165 175 152 151 223 135 212 233 239 271 194 221 333 276 274 299 287 242 274 267 297 291
245 258 262 275 282 300 308 311 305 308 313 323 329 332 341 346 347 0 311 266 95 113 4 283 345 308 293 236 194 200 152 65 97 81 125 156 191 176 216 226 196 200 177 226 256 280 279 271 268 282 279 281 293 293
240 249 259 273 282 292 300 305 303 300 307 316 320 324 333 342 338 6 181 265 209 104 266 286 305 269 294 278 251 206 164 129 133 111 145 220 217 166 216 78 242 187 211 205 261 242 241 271 284 276 273 284 266 262
234 240 250 261 274 286 292 301 305 305 309 307 307 313 322 335 352 42 25 313 33 68 58 322 295 291 303 312 77 139 150 155 165 174 208 222 229 170 242 249 230 216 221 243 269 277 280 273 269 268 262 272 268 265
226 230 248 266 273 278 286 295 297 296 291 291 296 302 307 319 65 112 181 236 154 58 69 315 323 295 313 320 358 45 51 192 176 243 231 231 243 181 228 258 259 248 241 266 275 268 299 276 287 301 282 274 285 270
218 228 249 258 264 272 282 289 294 290 286 288 294 301 308 309 187 342 289 341 119 96 96 348 279 336 10 335 336 353 7 17 360 211 332 242 316 245 257 264 283 296 291 279 251 251 261 283 293 282 278 272 274 276
215 225 240 249 255 266 277 286 292 288 292 299 306 311 14 37 41 266 138 102 68 128 178 293 247 285 353 333 273 334 57 348 173 236 253 161 224 232 245 278 285 303 281 283 285 281 282 271 279 285 296 306 284 279
211 224 236 245 249 260 275 284 284 289 302 312 26 39 18 322 266 86 355 351 14 346 56 239 182 270 70 343 294 320 16 332 325 290 275 228 257 297 198 223 255 283 289 289 286 276 281 271 273 286 289 286 276 275
220 228 239 241 245 257 272 274 264 330 63 41 50 192 252 331 48 36 349 295 306 302 197 236 201 264 317 320 286 101 312 292 317 288 292 269 253 255 271 272 282 292 287 278 274 269 267 265 261 273 283 284 289 288
214 222 227 228 231 246 247 220 180 70 172 175 173 353 352 44 36 44 292 306 226 249 215 196 237 197 275 294 10 343 301 345 275 328 297 273 254 263 289 300 297 301 297 288 281 273 256 250 238 246 262 274 284 290
205 210 216 216 219 230 209 189 191 181 116 82 52 24 66 271 36 167 226 278 274 228 222 193 288 202 348 53 255 340 292 250 311 252 260 255 283 306 314 317 309 307 308 308 302 293 255 244 238 232 256 262 273 273
193 197 203 205 212 207 193 182 169 143 87 109 122 326 176 232 241 196 204 235 258 235 274 180 238 177 194 268 160 286 273 310 293 299 259 280 305 316 315 317 317 322 326 323 321 314 289 242 236 234 243 262 262 264
183 187 187 202 197 192 179 169 154 123 190 203 125 234 223 235 264 243 242 281 257 271 339 59 49 122 270 292 188 312 280 286 262 253 273 293 308 308 312 318 320 316 321 321 323 316 306 280 235 244 240 248 250 259
164 145 200 184 176 167 156 136 127 122 254 220 220 265 237 357 285 319 287 274 309 312 95 84 75 352 272 179 285 268 299 266 260 248 284 305 308 309 314 316 316 304 305 316 320 317 309 301 262 239 251 252 261 254
147 209 176 163 156 145 142 110 98 208 230 226 253 227 209 242 233 240 205 257 337 34 311 22 293 226 108 294 228 193 214 230 251 287 292 289 291 297 300 306 313 314 314 320 329 334 321 327 259 216 242 247 247 245
158 166 151 146 128 131 100 139 182 210 243 233 216 242 204 217 231 262 242 231 83 208 117 231 117 207 249 223 231 233 241 257 265 272 286 285 295 308 307 312 307 315 314 324 327 330 336 351 14 337 294 293 287 263
150 153 156 151 154 136 135 184 196 240 243 248 252 237 223 243 232 234 229 223 189 183 262 256 240 205 232 222 233 267 276 258 293 306 305 299 304 302 305 313 317 320 326 327 325 329 326 322 319 314 305 311 267 334
129 157 149 127 70 130 137 181 119 211 259 247 261 263 228 224 252 222 222 202 160 165 210 227 209 218 208 238 212 247 273 276 278 309 307 310 331 344 316 301 300 321 331 326 331 339 341 342 339 353 358 355 16 38
104 125 107 118 128 72 90 140 213 212 271 259 257 245 263 306 270 234 227 148 129 204 225 219 227 247 239 251 250 254 272 265 260 211 278 302 310 320 305 307 298 306 315 321 336 342 354 335 310 323 350 15 10 35
102 116 107 93 100 130 140 192 189 267 226 255 312 221 272 277 263 230 156 141 215 223 201 202 227 239 266 263 262 226 250 266 258 262 263 269 288 315 324 319 315 319 330 335 333 327 335 330 329 358 22 27 46 23
132 108 83 120 102 73 252 57 151 212 248 272 330 284 251 253 239 105 252 213 248 237 223 230 245 239 245 273 290 288 272 288 303 305 299 284 295 291 292 316 319 336 336 338 324 324 350 345 352 22 36 29 47 45
62 75 111 133 119 198 113 229 194 267 276 271 240 270 266 248 331 43 260 264 259 299 292 294 327 323 325 333 334 315 318 310 293 296 307 348 318 333 342 340 345 349 347 311 334 9 22 19 9 27 32 42 42 52
90 145 116 190 228 177 214 253 188 164 247 241 254 291 281 11 346 284 254 283 311 301 308 298 291 275 169 292 316 312 282 286 334 327 343 338 310 335 9 6 9 19 345 24 18 22 22 22 34 39 36 40 53 58
136 180 161 176 181 167 199 228 194 210 213 254 241 255 320 347 277 254 235 224 269 261 264 232 272 318 62 175 251 303 299 337 324 32 323 348 351 40 27 25 16 2 357 2 25 48 42 37 44 52 54 54 56 73
157 198 206 228 167 171 245 264 277 260 260 222 251 146 49 280 254 251 2 279 229 231 234 266 250 257 323 317 288 281 288 290 229 191 197 337 338 0 48 62 30 336 337 28 42 47 52 48 52 61 64 59 57 66
219 164 178 185 187 218 258 246 213 210 229 231 107 170 216 226 248 247 214 231 226 297 300 285 277 229 261 269 278 290 306 11 50 298 101 6 25 33 36 51 44 34 53 45 50 52 54 56 62 66 66 63 54 46
232 232 135 198 226 217 213 204 220 226 209 160 112 172 241 236 231 251 283 270 303 305 307 333 299 273 278 289 279 264 252 171 124 70 51 333 10 8 8 44 61 45 55 65 47 52 61 65 65 66 65 65 60 59
254 165 175 215 199 220 235 192 219 208 185 192 186 304 289 266 253 256 276 298 274 262 257 263 274 295 291 306 306 321 228 172 176 144 172 213 233 97 81 99 89 78 69 73 69 59 49 64 58 61 64 62 61 61
176 162 220 217 243 236 229 226 228 223 209 214 201 203 247 263 292 247 218 209 220 261 307 298 295 264 266 267 252 279 302 212 188 175 185 189 134 120 128 133 120 101 94 94 88 87 81 66 70 76 75 74 68 71
185 199 190 224 255 258 186 210 214 216 222 195 235 192 253 139 251 279 246 145 208 314 280 284 292 298 289 259 236 207 214 130 112 142 163 162 144 147 136 128 125 121 117 106 102 102 104 108 101 95 85 79 74 67
205 181 211 251 277 276 244 175 213 289 273 220 211 201 202 183 229 268 284 194 219 253 277 287 286 283 281 138 122 116 89 105 96 59 231 146 145 139 122 115 125 132 131 128 123 123 124 121 105 95 80 72 61 58